| time (UTC) | temp F | wind direction | speed knots | gust knots | rain 1hr in | rain 24hr in | rain mn in | humidity % | barometer mb |
| 20260902143037 | 66 | 91 | 0.9 | 2.6 | 0.00 | 0.00 | 0.00 | 78 | 1015.8 |
| 20260902141547 | 65 | 84 | 0.0 | 1.7 | 0.00 | 0.00 | 0.00 | 81 | 1015.6 |
| 20260902140042 | 64 | 0 | 0.0 | 0.0 | 0.00 | 0.00 | 0.00 | 84 | 1015.5 |
| 20260902134548 | 62 | 0 | 0.0 | 0.0 | 0.00 | 0.00 | 0.00 | 86 | 1015.3 |
| 20260902133045 | 62 | 0 | 0.0 | 0.0 | 0.00 | 0.00 | 0.00 | 87 | 1015.1 |
| 20260902131544 | 62 | 0 | 0.0 | 0.0 | 0.00 | 0.00 | 0.00 | 86 | 1015.0 |
| 20260902130040 | 62 | 0 | 0.0 | 0.0 | 0.00 | 0.00 | 0.00 | 86 | 1014.9 |
| 20260902124545 | 62 | 0 | 0.0 | 0.0 | 0.00 | 0.00 | 0.00 | 86 | 1014.9 |
| 20260902123047 | 62 | 0 | 0.0 | 0.0 | 0.00 | 0.00 | 0.00 | 86 | 1015.0 |
| 20260902121541 | 62 | 0 | 0.0 | 0.0 | 0.00 | 0.00 | 0.00 | 85 | 1015.0 |
| 20260902120044 | 62 | 0 | 0.0 | 0.0 | 0.00 | 0.00 | 0.00 | 86 | 1014.9 |
| 20260902114546 | 63 | 0 | 0.0 | 0.0 | 0.00 | 0.00 | 0.00 | 86 | 1015.1 |
| 20260902113042 | 63 | 0 | 0.0 | 0.0 | 0.00 | 0.00 | 0.00 | 86 | 1015.1 |
| 20260902111537 | 63 | 0 | 0.0 | 0.0 | 0.00 | 0.00 | 0.00 | 86 | 1015.2 |
| 20260902110044 | 64 | 0 | 0.0 | 0.0 | 0.00 | 0.00 | 0.00 | 85 | 1015.3 |
| 20260902104544 | 64 | 0 | 0.0 | 0.0 | 0.00 | 0.00 | 0.00 | 85 | 1015.2 |
| 20260902103042 | 64 | 0 | 0.0 | 0.0 | 0.00 | 0.00 | 0.00 | 84 | 1015.4 |
| 20260902101539 | 64 | 0 | 0.0 | 0.9 | 0.00 | 0.00 | 0.00 | 83 | 1015.4 |
| 20260902100046 | 64 | 0 | 0.0 | 0.0 | 0.00 | 0.00 | 0.00 | 82 | 1015.5 |
| 20260902094541 | 64 | 0 | 0.0 | 0.0 | 0.00 | 0.00 | 0.00 | 83 | 1015.5 |
| 20260902093042 | 64 | 0 | 0.0 | 0.0 | 0.00 | 0.00 | 0.00 | 83 | 1015.5 |
| 20260902091541 | 64 | 0 | 0.0 | 0.0 | 0.00 | 0.00 | 0.00 | 82 | 1015.6 |
| 20260902090040 | 64 | 0 | 0.0 | 0.0 | 0.00 | 0.00 | 0.00 | 82 | 1015.7 |
| 20260902084548 | 64 | 0 | 0.0 | 0.0 | 0.00 | 0.00 | 0.00 | 83 | 1015.7 |
| 20260902083044 | 64 | 0 | 0.0 | 0.0 | 0.00 | 0.00 | 0.00 | 83 | 1015.7 |
| 20260902081551 | 64 | 0 | 0.0 | 0.0 | 0.00 | 0.00 | 0.00 | 83 | 1015.9 |
| 20260902080042 | 64 | 0 | 0.0 | 0.0 | 0.00 | 0.00 | 0.00 | 81 | 1015.8 |
| 20260902074606 | 65 | 0 | 0.0 | 0.0 | 0.00 | 0.00 | 0.00 | 81 | 1015.6 |
| 20260902073043 | 65 | 0 | 0.0 | 0.0 | 0.00 | 0.00 | 0.00 | 82 | 1015.5 |
| 20260902071543 | 65 | 0 | 0.0 | 0.0 | 0.00 | 0.00 | 0.00 | 81 | 1015.3 |
| 20260902070050 | 65 | 0 | 0.0 | 0.0 | 0.00 | 0.00 | 0.00 | 81 | 1015.2 |
| 20260902064547 | 65 | 0 | 0.0 | 0.0 | 0.00 | 0.00 | 0.00 | 81 | 1015.0 |
| 20260902063100 | 66 | 0 | 0.0 | 0.0 | 0.00 | 0.00 | 0.00 | 79 | 1015.1 |
| 20260902061542 | 67 | 0 | 0.0 | 0.0 | 0.00 | 0.00 | 0.00 | 78 | 1015.1 |
| 20260902060059 | 67 | 0 | 0.0 | 0.0 | 0.00 | 0.00 | 0.00 | 76 | 1015.0 |
| 20260902054552 | 68 | 0 | 0.0 | 0.9 | 0.00 | 0.00 | 0.00 | 75 | 1015.0 |
| 20260902053039 | 68 | 0 | 0.9 | 1.7 | 0.00 | 0.00 | 0.00 | 75 | 1015.0 |
| 20260902051547 | 69 | 0 | 0.0 | 2.6 | 0.00 | 0.00 | 0.00 | 75 | 1015.0 |
| 20260902050038 | 69 | 252 | 1.7 | 3.5 | 0.00 | 0.00 | 0.00 | 75 | 1015.0 |
| 20260902044541 | 69 | 239 | 0.9 | 2.6 | 0.00 | 0.00 | 0.00 | 76 | 1014.9 |
| 20260902043103 | 69 | 289 | 1.7 | 4.3 | 0.00 | 0.00 | 0.00 | 76 | 1014.6 |
| 20260902041601 | 70 | 293 | 1.7 | 4.3 | 0.00 | 0.00 | 0.00 | 76 | 1014.3 |
| 20260902040042 | 70 | 294 | 0.9 | 3.5 | 0.00 | 0.00 | 0.00 | 74 | 1014.2 |
| 20260902034548 | 70 | 232 | 1.7 | 4.3 | 0.00 | 0.00 | 0.00 | 73 | 1014.0 |
| 20260902033037 | 70 | 253 | 1.7 | 4.3 | 0.00 | 0.00 | 0.00 | 75 | 1013.8 |
| 20260902031546 | 71 | 226 | 0.9 | 2.6 | 0.00 | 0.00 | 0.00 | 75 | 1013.7 |
| 20260902030044 | 71 | 0 | 0.0 | 3.5 | 0.00 | 0.00 | 0.00 | 73 | 1013.5 |
| 20260902024542 | 72 | 0 | 0.0 | 0.9 | 0.00 | 0.00 | 0.00 | 71 | 1013.2 |
| 20260902023038 | 73 | 0 | 0.0 | 2.6 | 0.00 | 0.00 | 0.00 | 69 | 1013.2 |
| 20260902021541 | 75 | 0 | 0.0 | 0.0 | 0.00 | 0.00 | 0.00 | 64 | 1013.2 |
| 20260902020046 | 76 | 0 | 0.9 | 4.3 | 0.00 | 0.00 | 0.00 | 61 | 1013.2 |
| 20260902014552 | 78 | 250 | 0.9 | 2.6 | 0.00 | 0.00 | 0.00 | 57 | 1013.2 |
| 20260902013051 | 79 | 225 | 0.9 | 5.2 | 0.00 | 0.00 | 0.00 | 55 | 1013.2 |
| 20260902011540 | 79 | 238 | 1.7 | 5.2 | 0.00 | 0.00 | 0.00 | 55 | 1013.1 |
| 20260902010050 | 80 | 234 | 0.9 | 2.6 | 0.00 | 0.00 | 0.00 | 54 | 1013.4 |
| 20260902004547 | 80 | 0 | 1.7 | 7.0 | 0.00 | 0.00 | 0.00 | 54 | 1013.3 |
| 20260902003118 | 82 | 181 | 0.9 | 4.3 | 0.00 | 0.00 | 0.00 | 52 | 1013.4 |
| 20260902001545 | 82 | 186 | 0.9 | 3.5 | 0.00 | 0.00 | 0.00 | 51 | 1013.4 |
| 20260902000043 | 82 | 161 | 0.9 | 5.2 | 0.00 | 0.00 | 0.00 | 48 | 1013.6 |
| 20260901234545 | 83 | 229 | 0.9 | 3.5 | 0.00 | 0.00 | 0.00 | 50 | 1013.7 |
| 20260901233047 | 83 | 210 | 1.7 | 4.3 | 0.00 | 0.00 | 0.00 | 50 | 1013.5 |
| 20260901231555 | 83 | 229 | 1.7 | 3.5 | 0.00 | 0.00 | 0.00 | 50 | 1013.6 |
| 20260901230045 | 83 | 223 | 1.7 | 3.5 | 0.00 | 0.00 | 0.00 | 52 | 1013.6 |
| 20260901224543 | 81 | 250 | 2.6 | 6.1 | 0.00 | 0.00 | 0.00 | 52 | 1013.8 |
| 20260901223045 | 81 | 177 | 1.7 | 6.1 | 0.00 | 0.00 | 0.00 | 53 | 1013.9 |
| 20260901221545 | 80 | 200 | 4.3 | 10.4 | 0.00 | 0.00 | 0.00 | 56 | 1013.9 |
| 20260901220043 | 81 | 231 | 2.6 | 8.7 | 0.00 | 0.00 | 0.00 | 57 | 1014.1 |
| 20260901214542 | 82 | 269 | 1.7 | 5.2 | 0.00 | 0.00 | 0.00 | 54 | 1014.4 |
| 20260901213046 | 82 | 209 | 2.6 | 7.0 | 0.00 | 0.00 | 0.00 | 50 | 1014.4 |
| 20260901211540 | 83 | 237 | 3.5 | 9.6 | 0.00 | 0.00 | 0.00 | 49 | 1014.4 |
| 20260901210047 | 83 | 213 | 1.7 | 8.7 | 0.00 | 0.00 | 0.00 | 48 | 1014.4 |
| 20260901204543 | 82 | 267 | 2.6 | 6.1 | 0.00 | 0.00 | 0.00 | 50 | 1014.5 |
| 20260901203043 | 81 | 264 | 3.5 | 7.8 | 0.00 | 0.00 | 0.00 | 52 | 1014.6 |
| 20260901201540 | 83 | 238 | 2.6 | 6.1 | 0.00 | 0.00 | 0.00 | 53 | 1014.8 |
| 20260901200044 | 82 | 252 | 2.6 | 6.1 | 0.00 | 0.00 | 0.00 | 53 | 1014.9 |
| 20260901194544 | 81 | 262 | 0.9 | 7.0 | 0.00 | 0.00 | 0.00 | 56 | 1015.0 |
| 20260901193042 | 81 | 0 | 1.7 | 4.3 | 0.00 | 0.00 | 0.00 | 59 | 1015.1 |
| 20260901191544 | 79 | 262 | 1.7 | 6.1 | 0.00 | 0.00 | 0.00 | 61 | 1015.3 |
| 20260901190058 | 80 | 226 | 1.7 | 6.1 | 0.00 | 0.00 | 0.00 | 59 | 1015.4 |
| 20260901184541 | 79 | 283 | 4.3 | 7.8 | 0.00 | 0.00 | 0.00 | 61 | 1015.4 |
| 20260901183044 | 80 | 298 | 4.3 | 9.6 | 0.00 | 0.00 | 0.00 | 60 | 1015.4 |
| 20260901181544 | 81 | 0 | 0.0 | 4.3 | 0.00 | 0.00 | 0.00 | 58 | 1015.4 |
| 20260901180043 | 80 | 0 | 0.9 | 3.5 | 0.00 | 0.00 | 0.00 | 56 | 1015.4 |
| 20260901174548 | 80 | 171 | 0.9 | 2.6 | 0.00 | 0.00 | 0.00 | 58 | 1015.4 |
| 20260901173044 | 78 | 0 | 0.0 | 5.2 | 0.00 | 0.00 | 0.00 | 62 | 1015.4 |
| 20260901171545 | 77 | 0 | 0.0 | 2.6 | 0.00 | 0.00 | 0.00 | 62 | 1015.2 |
| 20260901170047 | 76 | 0 | 0.0 | 3.5 | 0.00 | 0.00 | 0.00 | 65 | 1015.3 |
| 20260901164552 | 75 | 0 | 0.0 | 3.5 | 0.00 | 0.00 | 0.00 | 67 | 1015.1 |
| 20260901163102 | 74 | 0 | 0.0 | 3.5 | 0.00 | 0.00 | 0.00 | 70 | 1015.1 |
| 20260901161541 | 73 | 0 | 0.0 | 3.5 | 0.00 | 0.00 | 0.00 | 71 | 1015.2 |
| 20260901160044 | 73 | 0 | 0.0 | 1.7 | 0.00 | 0.00 | 0.00 | 71 | 1015.2 |
| 20260901154551 | 72 | 0 | 0.0 | 2.6 | 0.00 | 0.00 | 0.00 | 75 | 1015.2 |
| 20260901153041 | 71 | 0 | 0.0 | 3.5 | 0.00 | 0.00 | 0.00 | 75 | 1015.1 |
| 20260901151545 | 71 | 0 | 0.9 | 3.5 | 0.00 | 0.00 | 0.00 | 75 | 1015.0 |
| 20260901150040 | 71 | 0 | 0.0 | 0.0 | 0.00 | 0.00 | 0.00 | 77 | 1014.9 |
| 20260901144541 | 68 | 0 | 0.0 | 1.7 | 0.00 | 0.00 | 0.00 | 81 | 1014.9 |